Simultaneous Nadir Overpasses (SNOs) Predictions

Prediction of SNOs between AQUA and METOP-B Satellite Orbit:

Table of predicted SNOs for the next 14.0 days since TLE Epoch: 10/28/2022
Index Date (AQUA) Time (AQUA) Lat,Lon (AQUA) SZA (AQUA ) Date (METOP-B) Time (METOP-B) Lat,Lon (METOP-B) SZA (METOP-B ) Distance(km) Time Diff (sec)
1 10/29/2022 13:11:23 -73.45, 158.48 93.10 10/29/2022 13:10:17 -73.42, 155.76 93.10 86.08 66
2 10/29/2022 14:01:02 74.07, -35.26 87.55 10/29/2022 14:00:43 74.09, -35.31 87.58 3.11 19
3 10/29/2022 14:50:28 -74.14, 132.23 92.38 10/29/2022 14:51:24 -74.15, 132.14 92.37 2.72 56
4 11/01/2022 08:44:51 -74.07,-136.20 91.55 11/01/2022 08:44:27 -74.08,-136.28 91.54 2.44 24
5 11/01/2022 09:34:19 74.13, 31.30 88.52 11/01/2022 09:35:05 74.15, 31.24 88.55 3.02 46
6 11/04/2022 03:28:42 74.11, 122.78 89.36 11/04/2022 03:28:08 74.07, 122.79 89.33 3.76 34
7 11/04/2022 04:18:08 -74.17, -69.72 90.57 11/04/2022 04:18:48 -74.18, -69.62 90.56 3.06 40
8 11/06/2022 22:12:28 -74.08, 21.92 89.83 11/06/2022 22:11:50 -74.09, 21.92 89.81 2.07 38
9 11/06/2022 23:01:56 74.14,-170.59 90.25 11/06/2022 23:02:28 74.17,-170.57 90.27 2.76 32
10 11/09/2022 16:56:17 74.09, -79.04 90.99 11/09/2022 16:55:31 74.07, -79.04 90.98 1.76 46
11 11/09/2022 17:45:43 -74.15, 88.47 88.95 11/09/2022 17:46:12 -74.13, 88.43 88.96 2.09 29



Historial Predications of SNOs between AQUA and METOP-B
